Погода в Янтарном

Россия / Ростовская область     47°17′17″N   39°49′34″E
темп.,
°C
ветер,
м/с
пор.,
м/с
влажн.,
%
обл.,
%
осадки,
мм/ч
давл.,
гПа
погр.,
м
2 августа, пн
пн200:00+29св483878 0.0 1010325
03:00+27всв353943 0.0 1010160
06:00+26всв24425 0.0 1011111
09:00+32вюв22275 0.0 1011549
12:00+36юв331911 0.0 10102533
15:00+38ю22164 0.0 10093718
18:00+37ююз11168 0.0 10083248
21:00+32св112436 0.0 100927
3 августа, вт
вт300:00+30зюз12353 0.0 100952
03:00+28всв11351 0.0 100921
06:00+27сз1138100 0.0 101023
09:00+33в22280 0.0 1010436
12:00+37юз22210 0.0 10102558
15:00+37зюз74205 0.0 10092778
18:00+35з56260 0.0 1009689
21:00+30зсз410458 0.0 1010421
4 августа, ср
ср400:00+26ссв6115898 0.0 1012451
03:00+25с366079 0.0 1013243
06:00+25с356293 0.0 1013290
09:00+27ссв345381 0.0 1014646
12:00+33с233626 0.0 10131751
15:00+34зсз452998 0.0 10122990
18:00+33ссз533195 0.0 10122032
21:00+27всв364861 0.7 1014230
5 августа, чт
чт500:00+26ссв3647100 0.0 1014219
03:00+24св41044100 0.0 1014316
06:00+23всв484679 0.0 1015283
09:00+28всв34402 0.0 1015593
12:00+33всв332859 0.0 10142276
15:00+35всв222324 0.0 10133224
18:00+34св432399 0.0 10122681
21:00+30всв49279 0.0 1013605
6 августа, пт
пт600:00+27всв410314 0.0 1012328
03:00+25всв411345 0.0 1012362
06:00+24всв4113785 0.1 1013352
09:00+31в69233 0.1 1012816
12:00+35в782044 0.0 10112266
15:00+36в67199 0.0 10092891
18:00+36в67185 0.0 10092780
21:00+31всв71222100 0.0 1009834